| time (UTC) | temp C | wind direction | speed KPH | gust KPH | rain 1hr cm | rain 24hr cm | rain mn cm | humidity % | barometer mb |
| 20260509211558 | 18 | 236 | 3.2 | 0.0 | 0.00 | 0.00 | 0.00 | 36 | 1019.5 |
| 20260509210104 | 18 | 254 | 4.8 | 0.0 | 0.00 | 0.00 | 0.00 | 37 | 1019.6 |
| 20260509204537 | 18 | 280 | 6.4 | 0.0 | 0.00 | 0.00 | 0.00 | 35 | 1019.6 |
| 20260509203041 | 17 | 279 | 6.4 | 0.0 | 0.00 | 0.00 | 0.00 | 35 | 1019.8 |
| 20260509201533 | 17 | 211 | 6.4 | 0.0 | 0.00 | 0.00 | 0.00 | 36 | 1019.9 |
| 20260509200034 | 17 | 290 | 6.4 | 0.0 | 0.00 | 0.00 | 0.00 | 39 | 1020.1 |
| 20260509194531 | 17 | 201 | 6.4 | 0.0 | 0.00 | 0.00 | 0.00 | 42 | 1020.2 |
| 20260509193030 | 17 | 213 | 4.8 | 0.0 | 0.00 | 0.00 | 0.00 | 40 | 1020.4 |
| 20260509191529 | 17 | 284 | 3.2 | 0.0 | 0.00 | 0.00 | 0.00 | 41 | 1020.5 |
| 20260509190033 | 16 | 263 | 4.8 | 0.0 | 0.00 | 0.00 | 0.00 | 41 | 1020.5 |
| 20260509184625 | 16 | 205 | 3.2 | 0.0 | 0.00 | 0.00 | 0.00 | 42 | 1020.5 |
| 20260509183031 | 16 | 171 | 1.6 | 0.0 | 0.00 | 0.00 | 0.00 | 44 | 1020.6 |
| 20260509181516 | 16 | 174 | 3.2 | 0.0 | 0.00 | 0.00 | 0.00 | 43 | 1020.7 |
| 20260509180015 | 15 | 114 | 1.6 | 0.0 | 0.00 | 0.00 | 0.00 | 44 | 1020.6 |
| 20260509174507 | 15 | 101 | 1.6 | 0.0 | 0.00 | 0.00 | 0.00 | 43 | 1020.7 |
| 20260509173006 | 15 | 102 | 1.6 | 0.0 | 0.00 | 0.00 | 0.00 | 46 | 1020.6 |
| 20260509171501 | 14 | 72 | 1.6 | 0.0 | 0.00 | 0.00 | 0.00 | 47 | 1020.7 |
| 20260509170002 | 14 | 304 | 1.6 | 0.0 | 0.00 | 0.00 | 0.00 | 48 | 1020.7 |
| 20260509164606 | 14 | 304 | 0.0 | 0.0 | 0.00 | 0.00 | 0.00 | 45 | 1020.8 |
| 20260509163106 | 14 | 304 | 1.6 | 0.0 | 0.00 | 0.00 | 0.00 | 46 | 1020.9 |
| 20260509161550 | 13 | 303 | 0.0 | 0.0 | 0.00 | 0.00 | 0.00 | 46 | 1020.8 |
| 20260509160039 | 13 | 303 | 0.0 | 0.0 | 0.00 | 0.00 | 0.00 | 48 | 1020.6 |
| 20260509154523 | 13 | 303 | 0.0 | 0.0 | 0.00 | 0.00 | 0.00 | 52 | 1020.6 |
| 20260509153021 | 11 | 303 | 0.0 | 0.0 | 0.00 | 0.00 | 0.00 | 66 | 1020.7 |
| 20260509151601 | 10 | 303 | 0.0 | 0.0 | 0.00 | 0.00 | 0.00 | 75 | 1020.6 |
| 20260509150109 | 8 | 303 | 0.0 | 0.0 | 0.00 | 0.00 | 0.00 | 82 | 1020.6 |
| 20260509144537 | 7 | 303 | 0.0 | 0.0 | 0.00 | 0.00 | 0.00 | 86 | 1020.7 |
| 20260509143046 | 7 | 303 | 0.0 | 0.0 | 0.00 | 0.00 | 0.00 | 88 | 1020.8 |
| 20260509141524 | 5 | 303 | 0.0 | 0.0 | 0.00 | 0.00 | 0.00 | 91 | 1020.7 |
| 20260509140016 | 3 | 303 | 0.0 | 0.0 | 0.00 | 0.00 | 0.00 | 90 | 1020.6 |
| 20260509134558 | 2 | 303 | 0.0 | 0.0 | 0.00 | 0.00 | 0.00 | 90 | 1020.5 |
| 20260509133105 | 2 | 303 | 0.0 | 0.0 | 0.00 | 0.00 | 0.00 | 90 | 1020.4 |
| 20260509131539 | 2 | 303 | 0.0 | 0.0 | 0.00 | 0.00 | 0.00 | 91 | 1020.1 |
| 20260509130039 | 1 | 303 | 0.0 | 0.0 | 0.00 | 0.00 | 0.00 | 90 | 1020.1 |
| 20260509124521 | 1 | 303 | 0.0 | 0.0 | 0.00 | 0.00 | 0.00 | 90 | 1020.0 |
| 20260509123016 | 1 | 303 | 0.0 | 0.0 | 0.00 | 0.00 | 0.00 | 89 | 1019.9 |
| 20260509121601 | 1 | 303 | 0.0 | 0.0 | 0.00 | 0.00 | 0.00 | 89 | 1019.7 |
| 20260509120055 | 1 | 303 | 0.0 | 0.0 | 0.00 | 0.00 | 0.00 | 89 | 1019.5 |
| 20260509114555 | 1 | 303 | 0.0 | 0.0 | 0.00 | 0.00 | 0.00 | 88 | 1019.3 |
| 20260509113039 | 2 | 303 | 0.0 | 0.0 | 0.00 | 0.00 | 0.00 | 89 | 1019.2 |
| 20260509111537 | 2 | 303 | 0.0 | 0.0 | 0.00 | 0.00 | 0.00 | 89 | 1019.1 |
| 20260509110035 | 1 | 303 | 0.0 | 0.0 | 0.00 | 0.00 | 0.00 | 88 | 1018.9 |
| 20260509104533 | 2 | 303 | 0.0 | 0.0 | 0.00 | 0.00 | 0.00 | 88 | 1018.9 |
| 20260509103029 | 2 | 303 | 0.0 | 0.0 | 0.00 | 0.00 | 0.00 | 88 | 1018.8 |
| 20260509101528 | 2 | 303 | 0.0 | 0.0 | 0.00 | 0.00 | 0.00 | 87 | 1018.6 |
| 20260509100026 | 2 | 303 | 0.0 | 0.0 | 0.00 | 0.00 | 0.00 | 87 | 1018.4 |
| 20260509094506 | 3 | 303 | 0.0 | 0.0 | 0.00 | 0.00 | 0.00 | 87 | 1018.2 |
| 20260509093003 | 3 | 303 | 0.0 | 0.0 | 0.00 | 0.00 | 0.00 | 86 | 1018.0 |
| 20260509091551 | 3 | 303 | 0.0 | 0.0 | 0.00 | 0.00 | 0.00 | 86 | 1017.9 |
| 20260509090058 | 3 | 303 | 0.0 | 0.0 | 0.00 | 0.00 | 0.00 | 86 | 1017.9 |
| 20260509084527 | 3 | 303 | 0.0 | 0.0 | 0.00 | 0.00 | 0.00 | 85 | 1017.8 |
| 20260509083040 | 4 | 303 | 0.0 | 0.0 | 0.00 | 0.00 | 0.00 | 85 | 1017.8 |
| 20260509081505 | 4 | 303 | 0.0 | 0.0 | 0.00 | 0.00 | 0.00 | 84 | 1017.7 |
| 20260509080001 | 4 | 303 | 0.0 | 0.0 | 0.00 | 0.00 | 0.00 | 84 | 1017.5 |
| 20260509074543 | 5 | 303 | 0.0 | 0.0 | 0.00 | 0.00 | 0.00 | 83 | 1017.4 |
| 20260509073140 | 5 | 303 | 0.0 | 0.0 | 0.00 | 0.00 | 0.00 | 83 | 1017.3 |
| 20260509071523 | 5 | 303 | 0.0 | 0.0 | 0.00 | 0.00 | 0.00 | 83 | 1017.2 |
| 20260509070022 | 5 | 303 | 0.0 | 0.0 | 0.00 | 0.00 | 0.00 | 82 | 1017.0 |
| 20260509064600 | 5 | 303 | 0.0 | 0.0 | 0.00 | 0.00 | 0.00 | 81 | 1016.8 |
| 20260509063120 | 6 | 303 | 0.0 | 0.0 | 0.00 | 0.00 | 0.00 | 80 | 1016.7 |
| 20260509061535 | 6 | 303 | 0.0 | 0.0 | 0.00 | 0.00 | 0.00 | 79 | 1016.6 |
| 20260509060033 | 7 | 303 | 0.0 | 0.0 | 0.00 | 0.00 | 0.00 | 78 | 1016.6 |
| 20260509054512 | 7 | 303 | 0.0 | 0.0 | 0.00 | 0.00 | 0.00 | 76 | 1016.4 |
| 20260509053017 | 7 | 303 | 0.0 | 0.0 | 0.00 | 0.00 | 0.00 | 75 | 1016.2 |
| 20260509051551 | 8 | 303 | 0.0 | 0.0 | 0.00 | 0.00 | 0.00 | 74 | 1016.0 |
| 20260509050057 | 8 | 303 | 0.0 | 0.0 | 0.00 | 0.00 | 0.00 | 71 | 1016.0 |
| 20260509044526 | 9 | 303 | 0.0 | 0.0 | 0.00 | 0.00 | 0.00 | 68 | 1015.8 |
| 20260509043033 | 10 | 303 | 0.0 | 0.0 | 0.00 | 0.00 | 0.00 | 67 | 1015.8 |
| 20260509041600 | 10 | 303 | 0.0 | 0.0 | 0.00 | 0.00 | 0.00 | 65 | 1015.7 |
| 20260509040059 | 11 | 303 | 0.0 | 0.0 | 0.00 | 0.00 | 0.00 | 62 | 1015.5 |
| 20260509034537 | 11 | 303 | 0.0 | 0.0 | 0.00 | 0.00 | 0.00 | 60 | 1015.3 |
| 20260509033044 | 12 | 303 | 0.0 | 0.0 | 0.00 | 0.00 | 0.00 | 56 | 1015.1 |
| 20260509031516 | 13 | 303 | 0.0 | 0.0 | 0.00 | 0.00 | 0.00 | 55 | 1014.9 |
| 20260509030020 | 15 | 303 | 0.0 | 0.0 | 0.00 | 0.00 | 0.00 | 50 | 1014.6 |
| 20260509024604 | 16 | 303 | 0.0 | 0.0 | 0.00 | 0.00 | 0.00 | 44 | 1014.5 |
| 20260509023055 | 16 | 303 | 0.0 | 0.0 | 0.00 | 0.00 | 0.00 | 40 | 1014.2 |
| 20260509021543 | 17 | 303 | 0.0 | 0.0 | 0.00 | 0.00 | 0.00 | 39 | 1014.2 |
| 20260509020047 | 17 | 303 | 0.0 | 0.0 | 0.00 | 0.00 | 0.00 | 39 | 1014.1 |
| 20260509014542 | 17 | 303 | 1.6 | 0.0 | 0.00 | 0.00 | 0.00 | 38 | 1014.1 |
| 20260509013047 | 16 | 303 | 6.4 | 0.0 | 0.00 | 0.00 | 0.00 | 40 | 1014.1 |
| 20260509011545 | 16 | 305 | 6.4 | 0.0 | 0.00 | 0.00 | 0.00 | 40 | 1014.1 |
| 20260509010041 | 17 | 282 | 9.7 | 0.0 | 0.00 | 0.00 | 0.00 | 37 | 1014.1 |
| 20260509004552 | 16 | 296 | 6.4 | 0.0 | 0.00 | 0.00 | 0.00 | 39 | 1014.2 |
| 20260509003042 | 16 | 293 | 4.8 | 0.0 | 0.00 | 0.00 | 0.00 | 39 | 1014.2 |
| 20260509001522 | 17 | 294 | 6.4 | 0.0 | 0.00 | 0.00 | 0.00 | 40 | 1014.2 |
| 20260509000036 | 17 | 288 | 6.4 | 0.0 | 0.00 | 0.00 | 0.00 | 39 | 1014.2 |
| 20260508234504 | 18 | 289 | 9.7 | 0.0 | 0.00 | 0.00 | 0.00 | 40 | 1014.1 |
| 20260508233004 | 18 | 288 | 8.0 | 0.0 | 0.00 | 0.00 | 0.00 | 40 | 1014.1 |
| 20260508231604 | 17 | 306 | 9.7 | 0.0 | 0.00 | 0.00 | 0.00 | 41 | 1014.1 |
| 20260508230046 | 18 | 313 | 6.4 | 0.0 | 0.00 | 0.00 | 0.00 | 38 | 1014.0 |
| 20260508224605 | 17 | 294 | 4.8 | 0.0 | 0.00 | 0.00 | 0.00 | 38 | 1013.9 |
| 20260508223028 | 17 | 296 | 6.4 | 0.0 | 0.00 | 0.00 | 0.00 | 40 | 1014.1 |
| 20260508221533 | 18 | 292 | 9.7 | 0.0 | 0.00 | 0.00 | 0.00 | 40 | 1014.1 |
| 20260508220010 | 18 | 289 | 8.0 | 0.0 | 0.00 | 0.00 | 0.00 | 42 | 1014.2 |
| 20260508214511 | 17 | 290 | 11.3 | 0.0 | 0.00 | 0.00 | 0.00 | 44 | 1014.1 |
| 20260508213052 | 17 | 304 | 8.0 | 0.0 | 0.00 | 0.00 | 0.00 | 46 | 1014.1 |